Regional Weather Roundup
Issued by NWS

Home | Current Version | Previous Version | Text Only | Print | Product List | Glossary Off
Versions: 1 2 3 4 5 6 7 8 9 10 11 12 13 14 15 16 17 18 19 20 21 22 23 24 25 26 27 28 29 30 31 32 33 34 35 36 37 38 39 40 41 42 43 44 45 46 47 48 49 50

000
ASUS44 KMEG 221510
RWRTN
TENNESSEE HOURLY STATE WEATHER ROUNDUP
NATIONAL WEATHER SERVICE MEMPHIS TN
1000 AM CDT SUN APR 22 2018

TNZ002-004-019-021-049-052-054-088>092-221600-
WEST TENNESSEE

CITY           SKY/WX    TMP DP  RH WIND       PRES   REMARKS
MEMPHIS INTL   HVY RAIN  59  59 100 E12       29.94F FOG
NWS MEMPHIS      N/A     57 N/A N/A MISG        N/A
JACKSON        CLOUDY    58  57  97 E10       30.01F
DYERSBURG      LGT RAIN  55  54  96 NE10      30.03F FOG
SOMERVILLE     CLOUDY    59  57  94 CALM      29.97S FOG
COVINGTON      CLOUDY    57  55  94 E8        30.00S FOG
UNION CITY     MOSUNNY   54  52  94 NE7G13    30.06F FOG
BOLIVAR        CLOUDY    59  57  94 E9        29.99F
PARIS          MOSUNNY   54  52  94 E10       30.08F
HUNTINGDON     MOSUNNY   55  55 100 E9        30.05F FOG
LEXINGTON      CLOUDY    57  55  94 VRB7G13   30.04F
SELMER         CLOUDY    57  55  94 E9        30.00F
SAVANNAH       CLOUDY    59  57  94 E7G15     30.01F
$$

TNZ008-025-027-028-033-062-065-066-221600-
NORTH MIDDLE TENNESSEE

CITY           SKY/WX    TMP DP  RH WIND       PRES   REMARKS
NASHVILLE      RAIN      58  55  90 E8        30.15R FOG
PORTLAND       PTSUNNY   59  48  67 SE5       30.16R
CLARKSVILLE    LGT RAIN  54  48  80 SE3       30.14R
SMYRNA         RAIN      58  55  90 SE6       30.17R FOG
COOKEVILLE     PTSUNNY   61  45  55 SE6G12    30.20R
LIVINGSTON     SUNNY     59  43  55 SE7       30.20R
GALLATIN       CLOUDY    61  46  59 E6        30.19R
CROSSVILLE     CLOUDY    57  44  62 SE10G17   30.22R
ROCKWOOD       CLOUDY    57  37  47 CALM      30.24R
$$

TNZ061-075-076-078-094-096-097-221600-
SOUTH MIDDLE TENNESSEE

CITY           SKY/WX    TMP DP  RH WIND       PRES   REMARKS
LEWISBURG      PTSUNNY   59  57  94 E5        30.11F FOG
FAYETTEVILLE   CLOUDY    59  57  94 E9        30.11S
TULLAHOMA      CLOUDY    57  55  94 E7        30.15F FOG
WINCHESTER     CLOUDY    57  55  94 SE8G15    30.16R FOG
MCMINNVILLE    MOSUNNY   59  55  88 SE7       30.18R FOG
COLUMBIA       PTSUNNY   59  59 100 VRB5      30.09S FOG
SHELBYVILLE    PTSUNNY   57  55  94 E13       30.14F FOG
$$

TNZ017-018-042-046-047-221600-
NORTHEAST TENNESSEE

CITY           SKY/WX    TMP DP  RH WIND       PRES   REMARKS
TRI CITIES     CLOUDY    61  43  51 E3        30.28F
ELIZABETHTON   FAIR      63  41  45 E3        30.28S
$$

TNZ012-013-036-069-073-074-221600-
CENTRAL EAST TENNESSEE

CITY           SKY/WX    TMP DP  RH WIND       PRES   REMARKS
KNOXVILLE      CLOUDY    61  44  53 NE9       30.23F
OAK RIDGE      CLOUDY    61  43  51 CALM      30.25F
DOWNTOWN KNOXV SUNNY     61  43  51 CALM      30.25S
GATLINBURG     SUNNY     64  45  48 N3        30.23F
MORRISTOWN     SUNNY     63  41  45 E7        30.24F
JACKSBORO      SUNNY     59  39  47 CALM      30.28S
$$

TNZ083-085-099-221600-
SOUTHEAST TENNESSEE

CITY           SKY/WX    TMP DP  RH WIND       PRES   REMARKS
CHATTANOOGA    HVY RAIN  57  55  93 E7        30.21S FOG
DAYTON         CLOUDY    57  52  82 CALM      30.22R
$$

SKY/WX REPORTED AS FAIR MEANS FEW OR NO CLOUDS BELOW
12 THOUSAND FEET.




USA.gov is the U.S. government's official web portal to all federal, state and local government web resources and services.